TimeEST,TemperatureF,Dew PointF,Humidity,Sea Level PressureIn,VisibilityMPH,Wind Direction,Wind SpeedMPH,Gust SpeedMPH,PrecipitationIn,Events,Conditions,WindDirDegrees,DateUTC
12:52 AM,24.1,9.0,53,30.20,10.0,NW,4.6,-,N/A,,Overcast,310,2014-02-11 05:52:00
1:52 AM,23.0,10.0,58,30.22,10.0,WNW,6.9,-,N/A,,Overcast,290,2014-02-11 06:52:00
2:52 AM,21.0,10.0,63,30.22,10.0,WNW,4.6,-,N/A,,Scattered Clouds,290,2014-02-11 07:52:00
3:52 AM,19.9,10.0,65,30.22,10.0,WNW,3.5,-,N/A,,Partly Cloudy,300,2014-02-11 08:52:00
4:52 AM,18.0,9.0,68,30.24,10.0,West,3.5,-,N/A,,Partly Cloudy,280,2014-02-11 09:52:00
5:52 AM,19.0,9.0,65,30.24,10.0,WNW,4.6,-,N/A,,Partly Cloudy,290,2014-02-11 10:52:00
6:16 AM,19.0,9.0,65,30.23,10.0,WNW,3.5,-,N/A,,Mostly Cloudy,290,2014-02-11 11:16:00
6:52 AM,16.0,8.1,71,30.26,10.0,West,3.5,-,N/A,,Mostly Cloudy,270,2014-02-11 11:52:00
7:52 AM,19.9,10.0,65,30.28,10.0,Variable,3.5,-,N/A,,Clear,0,2014-02-11 12:52:00
8:52 AM,24.1,7.0,48,30.29,10.0,Variable,4.6,-,N/A,,Clear,0,2014-02-11 13:52:00
9:52 AM,25.0,7.0,46,30.30,10.0,Variable,6.9,-,N/A,,Clear,0,2014-02-11 14:52:00
10:52 AM,26.1,8.1,47,30.29,10.0,Variable,5.8,-,N/A,,Clear,0,2014-02-11 15:52:00
11:52 AM,25.0,7.0,46,30.28,10.0,NW,10.4,18.4,N/A,,Clear,310,2014-02-11 16:52:00
12:52 PM,25.0,6.1,45,30.26,10.0,NW,10.4,-,N/A,,Clear,320,2014-02-11 17:52:00
1:52 PM,26.1,5.0,41,30.25,10.0,NW,9.2,-,N/A,,Clear,320,2014-02-11 18:52:00
2:52 PM,25.0,6.1,45,30.25,10.0,WNW,5.8,-,N/A,,Clear,290,2014-02-11 19:52:00
3:52 PM,24.1,6.1,46,30.27,10.0,Variable,6.9,-,N/A,,Clear,0,2014-02-11 20:52:00
4:52 PM,23.0,8.1,53,30.29,10.0,Variable,4.6,-,N/A,,Clear,0,2014-02-11 21:52:00
5:52 PM,21.0,7.0,55,30.32,10.0,Calm,Calm,-,N/A,,Clear,0,2014-02-11 22:52:00
6:52 PM,18.0,7.0,62,30.33,10.0,Calm,Calm,-,N/A,,Scattered Clouds,0,2014-02-11 23:52:00
7:52 PM,19.0,7.0,59,30.34,10.0,WNW,4.6,-,N/A,,Mostly Cloudy,290,2014-02-12 00:52:00
8:52 PM,21.0,6.1,53,30.36,10.0,Variable,4.6,-,N/A,,Mostly Cloudy,0,2014-02-12 01:52:00
9:52 PM,21.9,6.1,51,30.37,10.0,Variable,5.8,-,N/A,,Partly Cloudy,0,2014-02-12 02:52:00
10:52 PM,21.0,6.1,53,30.38,10.0,Variable,4.6,16.1,N/A,,Partly Cloudy,0,2014-02-12 03:52:00
11:52 PM,21.0,5.0,50,30.38,10.0,Variable,5.8,-,N/A,,Partly Cloudy,0,2014-02-12 04:52:00